This is the latest recevied weather packets stored in our database for station/object OK2ILA-3. If no packets are shown the sender has not sent any weather packets the latest 10 day(s).
| Time | Temp. | Humidity | Pressure | Rain* | Wind** | Luminosity | Snow |
|---|---|---|---|---|---|---|---|
| 1778068927 | 21.11° C | 28% | 4352 hPa | 0 mm | - | - | - |
| 1778068320 | 22.22° C | 83% | 5495.4 hPa | 0 mm | - | - | - |
| 1778067716 | 22.78° C | 79% | 5495.4 hPa | 0 mm | - | - | - |
| 1778067109 | 22.78° C | 28% | 5495.4 hPa | 0 mm | - | - | - |
| 1778066496 | 21.11° C | 3% | 0 hPa | 0 mm | - | - | - |
| 1778065891 | 21.67° C | 13% | 1137.6 hPa | 0 mm | - | - | - |
| 1778065285 | 22.22° C | 3% | 1137.6 hPa | 0 mm | - | - | - |
| 1778064674 | 21.67° C | 77% | 0.4 hPa | 0 mm | - | - | - |
| 1778064068 | 21.67° C | 100% | 1280 hPa | 0 mm | - | - | - |
| 1778063461 | 21.67° C | 3% | 67.7 hPa | 0 mm | - | - | - |
| 1778062857 | 19.44° C | 59% | 96 hPa | 0 mm | - | - | - |
| 1778062253 | 21.11° C | 72% | 2.9 hPa | 0 mm | - | - | - |
| 1778061683 | 20° C | 24% | 2.9 hPa | 0 mm | - | - | - |
| 1778061649 | 20° C | 24% | 2.9 hPa | 0 mm | - | - | - |
| 1778061076 | 20.56° C | 28% | 2.9 hPa | 0 mm | - | - | - |
| 1778061044 | 20.56° C | 28% | 2.9 hPa | 0 mm | - | - | - |
| 1778060440 | 21.67° C | 12% | 2.9 hPa | 0 mm | - | - | - |
| 1778059834 | 21.11° C | 70% | 2.9 hPa | 0 mm | - | - | - |
| 1778059225 | 22.22° C | 67% | 3123.4 hPa | 0 mm | - | - | - |
| 1778058619 | 21.11° C | 100% | 3532.8 hPa | 0 mm | - | - | - |
| 1778058017 | 20.56° C | 65% | 3532.8 hPa | 0 mm | - | - | - |
| 1778057411 | 18.89° C | 28% | 3532.8 hPa | 0 mm | - | - | - |
| 1778056805 | 19.44° C | 15% | 3532.8 hPa | 0 mm | - | - | - |
| 1778056200 | 18.33° C | 28% | 88 hPa | 0 mm | - | - | - |
| 1778055595 | 18.33° C | 3% | 88 hPa | 0 mm | - | - | - |
* Rain latest 24 hours (hover to see other rain measurements)
** Current wind speed in m/s (hover to see current wind gust speed)